User: anonymous   Login
Location: Unspecified
(0.0000°N, 0.0000°E)
Time: 22:20:23
(UTC+02:00)
Language:

Cosmos 2263 Rocket - Orbit

View from above orbital plane
View from above orbital plane
View from above satellite
View from above satellite

Ground track
Ground track

The orbit data is extracted from the following two-line orbital elements,

1 22803U 93059B   16176.47170719  .00000202  00000-0  12496-3 0  9997
2 22803  70.9911 283.2086 0018477 216.2564 143.7309 14.16746269177611
Epoch (UTC): 24 June 2016 11:19:15
Eccentricity: 0.0018477
inclination: 70.9911°
perigee height: 823 km
apogee height: 850 km
right ascension of ascending node: 283.2086°
argument of perigee: 216.2564°
revolutions per day: 14.16746269
mean anomaly at epoch: 143.7309°
orbit number at epoch: 17761

The dashed part of the orbit path shows where the satellite is in the earth's shadow,  

DLR